Погода в Санта-Кларе

США     37°21′09″N   121°58′05″W
темп.,
°C
ветер,
м/с
пор.,
м/с
влажн.,
%
обл.,
%
осадки,
мм/ч
давл.,
гПа
погр.,
м
28 июля, ср
ср2823:00+18св01640 0.0 1017127
02:00+17сз11700 0.0 1016101
05:00+16с117211 0.0 101790
08:00+21ссв015584 0.0 1017172
11:00+30с2130100 0.0 1016603
14:00+34с32235 0.0 10151227
17:00+33ссз43285 0.0 10141025
20:00+24ссз224896 0.0 1015171
29 июля, чт
чт2923:00+20сз115827 0.0 1015103
02:00+19зюз116260 0.0 101447
05:00+19ссз0057100 0.0 101474
08:00+22з004487 0.0 1015148
11:00+31с222367 0.0 1014606
14:00+35с322073 0.0 10121116
17:00+35ссз332063 0.0 1011959
20:00+26сз22355 0.0 1012168
30 июля, пт
пт3023:00+21юз114896 0.0 101258
02:00+20юз11455 0.0 101227
05:00+19юз11435 0.0 101120
08:00+23ю01345 0.0 1012130
11:00+34с111990 0.0 1012684
14:00+36ссз3218100 0.0 10111257
17:00+35сз2218100 0.0 1010960
20:00+25юз123876 0.0 1012122
31 июля, сб
сб3123:00+20ююз2259100 0.0 1014102
02:00+17ююз227480 0.0 101498
05:00+16ююз2279100 0.0 101599
08:00+20ююз125910 0.0 1016224
11:00+31с012764 0.0 1016758
14:00+36ссз22197 0.0 10151502
17:00+33ссз22230 0.0 10151136
20:00+24зсз22400 0.0 1016178
1 августа, вс
вс123:00+18ююз11620 0.0 101787
02:00+16ююз11630 0.0 101767
05:00+16ю11570 0.0 101750
08:00+21с00410 0.0 1017178
11:00+30ссв21210 0.0 1017636
14:00+35с22170 0.0 10151355
17:00+34сз32190 0.0 10141145
20:00+24зсз12340 0.0 1015155